Theta_e
316 318 318 317 317 316 315 315 315 316 319 319 319 318 317 317 316 316 316 317 316 316 317 319 319 319 318 319 319 319 320 321 325 330 331 332 333 334 334 334 333 332 333 333
317 316 313 313 316 317 316 315 314 316 318 317 316 315 312 312 313 313 313 313 313 312 312 313 314 316 318 318 319 319 319 320 321 325 328 329 331 332 332 333 332 330 331 333
316 313 311 314 315 317 317 316 314 314 317 316 317 315 315 313 312 312 312 312 312 311 310 310 313 315 316 316 316 317 318 319 320 321 324 327 328 329 330 331 331 331 331 329
313 311 312 314 315 319 319 315 315 317 316 312 314 312 311 310 310 311 310 310 309 309 311 311 312 313 314 314 315 316 317 318 318 319 321 324 326 327 328 329 329 331 332 331
314 312 312 314 312 313 314 314 315 314 313 313 311 310 309 311 310 310 310 310 310 311 312 311 310 311 311 311 312 312 314 314 314 315 317 321 324 326 327 328 328 329 329 329
313 313 312 311 311 312 314 313 313 314 313 313 312 309 308 309 310 311 313 311 311 311 311 310 309 310 311 312 313 314 315 316 315 314 314 318 322 324 325 326 326 326 325 326
313 314 314 314 314 313 315 315 318 319 318 313 311 309 309 309 311 311 313 311 311 311 310 310 310 311 312 311 310 310 311 311 316 320 320 320 322 323 324 324 320 322 321 320
313 315 315 314 314 315 315 314 318 314 318 314 313 312 310 311 310 310 311 311 310 310 310 311 310 310 309 308 308 307 306 306 308 310 313 316 316 316 313 314 312 310 310 311
314 313 312 313 313 313 315 315 313 313 308 311 311 311 310 311 311 311 311 310 310 311 310 310 309 308 307 306 305 305 304 304 304 305 306 307 307 308 307 307 307 307 307 306
311 313 311 313 313 313 314 313 315 314 313 313 307 307 309 310 310 310 310 309 310 310 311 311 308 307 306 304 303 303 303 303 303 303 303 303 303 303 303 304 303 303 303 303
310 312 312 312 315 314 315 316 314 314 313 315 313 309 308 309 309 310 310 311 310 309 308 308 309 307 305 304 303 303 302 302 302 302 302 302 302 302 302 302 301 301 301 301
309 313 313 314 310 310 312 313 313 313 314 311 313 311 311 309 309 309 309 310 310 309 307 308 309 307 305 304 302 302 301 301 301 300 300 300 300 300 300 300 300 300 300 300
310 312 314 314 311 310 313 313 312 313 311 313 313 311 310 310 309 308 308 309 310 310 309 308 309 307 306 304 303 301 301 300 300 299 299 299 299 300 300 299 299 299 299 299
310 312 312 312 311 311 312 312 313 312 315 313 312 311 309 310 309 308 308 308 307 306 306 306 307 308 308 306 303 302 300 300 300 299 299 299 299 299 299 299 299 299 298 298
311 311 311 311 311 309 310 311 313 313 313 315 312 311 310 308 307 308 308 308 308 307 306 305 305 305 308 307 304 303 301 300 299 299 298 298 298 298 298 298 297 297 297 296
310 307 310 306 311 308 310 310 311 312 313 313 312 311 309 308 307 307 308 307 307 307 306 306 305 306 308 308 306 303 302 300 299 298 298 297 297 297 296 296 295 295 294 294
310 310 310 308 309 309 311 308 309 309 310 311 312 311 309 308 308 307 307 307 305 305 305 305 304 305 307 309 308 305 302 300 299 297 297 296 295 295 294 293 293 293 292 292
309 309 308 305 302 311 305 306 307 308 307 307 307 307 307 307 306 306 306 305 305 304 303 304 305 306 307 308 308 305 302 300 298 296 296 294 293 292 291 291 291 290 289 289
309 309 311 311 307 305 305 304 304 307 308 307 307 307 306 304 304 303 303 303 303 303 304 305 306 306 307 307 308 304 300 299 297 296 295 293 291 290 289 288 288 288 288 287
307 308 308 310 310 309 305 304 304 304 304 303 303 303 303 303 304 304 304 306 306 305 305 304 303 302 302 303 305 302 298 296 295 294 292 290 288 287 286 287 286 286 286 286
308 309 311 310 310 305 303 303 303 305 305 304 303 303 303 303 303 303 302 303 304 304 303 300 298 297 297 298 299 297 295 293 292 291 290 287 285 285 285 285 285 285 285 286
306 305 306 304 307 306 303 303 304 304 303 303 304 304 304 304 303 303 301 301 300 300 299 297 294 292 292 293 294 293 289 287 288 287 285 284 283 283 283 283 283 283 284 285
305 304 303 305 303 303 305 304 303 304 304 305 304 303 303 302 301 301 299 300 298 299 296 293 291 288 288 289 291 287 283 285 285 283 282 281 281 281 282 282 282 282 282 282
302 302 302 304 303 303 304 303 302 302 302 302 302 302 301 301 299 297 295 295 294 293 292 290 287 284 283 284 285 284 282 282 282 280 280 279 280 280 280 280 280 280 280 280
301 300 299 300 299 299 298 299 300 299 299 298 298 298 298 297 296 295 294 294 293 291 289 287 285 282 279 280 281 280 279 279 279 279 278 278 278 278 278 278 278 277 277 278
297 299 300 300 299 299 298 298 299 298 297 296 296 296 296 295 294 294 292 293 292 288 286 284 282 280 277 276 276 276 276 278 279 277 277 277 277 276 276 276 277 276 276 276
Wind_Speed
5 4 8 11 10 4 4 5 6 4 4 2 6 8 11 8 7 8 8 9 9 10 12 16 18 18 18 18 21 20 19 19 19 25 24 24 26 24 22 21 20 25 20 22
3 6 8 8 10 8 2 6 4 4 5 2 7 11 11 11 9 9 11 12 11 8 9 14 17 19 19 15 16 18 19 21 23 23 25 25 23 21 23 25 25 23 25 19
5 1 9 1 4 8 6 7 5 2 5 8 5 8 15 12 14 16 14 11 8 9 9 7 6 8 6 11 17 20 19 22 22 23 21 18 19 17 16 17 20 20 16 22
6 5 3 3 6 5 8 8 6 4 3 2 3 5 3 6 8 9 9 7 9 9 3 4 5 8 9 9 10 10 16 17 16 16 20 21 21 19 18 18 16 15 14 13
1 4 6 7 5 7 0 6 3 0 3 5 3 4 6 1 4 6 6 3 6 5 3 4 6 8 8 10 10 10 11 12 14 15 17 15 17 15 11 11 11 7 9 11
5 5 5 6 4 5 8 5 4 2 1 3 10 8 4 5 4 4 5 5 5 3 2 5 3 2 3 4 3 2 2 5 7 12 14 15 11 13 13 8 6 8 8 8
5 4 2 2 6 1 6 7 2 1 2 6 2 7 10 5 3 4 4 2 3 4 4 5 5 7 8 6 6 7 5 7 5 7 9 9 8 5 2 2 3 4 4 4
7 5 10 8 6 7 13 9 4 5 3 1 4 5 5 2 7 5 5 2 4 6 5 5 6 7 6 5 7 5 5 6 7 7 6 6 7 7 5 4 4 3 2 4
8 5 11 12 7 7 10 8 2 2 1 1 5 6 8 5 4 4 3 3 5 5 6 6 6 5 4 3 3 3 3 4 5 6 6 7 8 7 5 4 4 3 2 3
3 4 2 4 2 5 2 4 3 1 3 4 5 5 5 5 7 7 7 7 6 4 4 5 6 4 2 1 2 2 2 3 4 4 5 6 6 6 5 4 2 1 2 3
3 2 1 6 8 10 4 4 4 4 4 2 2 2 5 8 9 9 6 4 4 3 3 4 6 7 6 5 4 3 3 3 3 4 4 5 5 5 5 4 3 3 2 4
6 3 4 6 2 2 7 5 9 3 4 3 1 5 2 7 9 6 6 5 2 3 3 3 6 8 8 8 6 5 5 4 4 4 5 5 5 5 4 3 2 2 3 4
8 3 3 3 2 1 6 9 12 9 1 5 4 4 1 6 5 6 7 6 5 4 3 3 4 8 10 11 12 11 9 7 7 7 6 6 5 4 3 2 1 2 3 4
11 4 7 8 3 8 7 11 14 12 6 8 11 6 2 4 6 5 5 2 6 5 7 5 5 11 16 15 16 15 13 12 11 10 9 7 6 5 3 1 1 1 2 4
7 5 4 12 3 3 6 9 15 17 21 9 16 15 13 8 6 4 4 6 3 5 7 8 8 7 17 18 17 17 19 17 14 12 10 9 7 5 4 2 1 2 3 4
5 4 5 3 8 6 2 6 15 20 20 14 20 20 10 7 8 8 10 7 6 7 8 8 9 11 12 21 24 23 23 22 19 16 14 12 9 7 5 3 2 1 2 2
7 5 3 4 5 3 3 15 12 7 14 12 15 17 10 9 11 9 7 6 8 8 8 9 9 12 17 21 27 29 29 25 22 19 16 13 10 8 6 5 3 1 2 3
7 7 4 3 3 8 9 8 15 17 18 14 14 16 16 13 11 8 8 10 13 12 9 8 11 17 19 20 24 28 26 26 24 20 17 14 12 9 8 7 4 2 2 3
13 9 3 5 6 3 7 9 14 12 18 15 16 20 18 9 5 7 8 9 11 10 10 16 18 13 14 16 19 26 26 26 23 21 19 15 13 11 10 7 5 3 2 3
0 6 8 3 4 8 13 13 4 4 4 16 16 12 11 6 6 7 7 1 2 4 6 8 12 13 13 9 16 25 24 22 20 19 17 13 11 10 10 7 5 2 1 2
5 4 11 10 6 5 10 6 6 8 11 11 10 14 14 8 5 1 4 4 3 4 10 10 11 5 4 5 11 13 14 14 15 17 15 12 10 8 7 4 3 1 1 3
9 7 5 3 2 8 13 7 13 13 4 4 3 3 1 2 2 2 5 5 7 8 5 6 2 2 2 4 9 14 15 13 13 11 12 11 10 7 4 3 2 3 4 5
4 8 5 8 7 8 4 5 3 1 3 1 4 5 4 6 4 4 5 4 5 8 7 5 7 7 4 4 10 18 16 15 13 13 12 9 7 6 5 5 4 4 4 4
3 0 3 3 10 7 1 3 4 4 4 5 5 5 5 7 7 7 6 6 5 9 9 9 11 10 8 9 12 13 12 14 16 15 11 10 7 5 4 5 4 4 3 6
5 7 5 4 8 6 9 4 7 8 8 8 5 7 9 8 8 7 6 6 7 10 11 13 15 12 11 12 13 12 13 14 15 15 12 9 7 6 5 4 4 4 7 8
5 5 4 5 4 5 9 4 3 6 8 10 8 6 4 7 9 5 7 7 9 13 13 13 15 17 14 12 13 12 12 14 16 14 11 10 8 7 5 4 7 8 8 10
Wind_Direction
205 179 203 203 216 228 358 294 235 152 78 14 267 265 266 272 268 258 244 238 244 251 272 270 261 251 241 233 231 237 239 230 221 214 217 224 228 234 244 246 242 233 239 238
137 232 229 231 209 234 175 273 271 66 110 83 277 272 272 261 249 236 246 250 255 263 254 258 262 256 232 233 237 239 240 232 228 221 223 224 229 235 239 242 250 254 235 235
188 124 224 183 252 218 194 236 240 225 163 209 256 267 244 259 240 246 248 248 253 266 280 285 303 305 273 241 250 252 242 240 234 229 220 221 227 235 230 237 250 251 254 240
245 249 137 184 229 197 233 213 249 347 41 255 113 285 307 237 232 218 234 235 238 239 311 336 288 279 290 287 261 265 242 241 236 228 218 215 217 224 236 246 246 242 250 249
149 166 179 204 206 190 272 48 71 307 273 309 236 259 261 238 234 234 222 191 99 66 14 335 14 26 341 307 285 266 250 243 242 233 223 220 228 230 236 240 204 199 224 236
304 355 195 209 205 163 112 114 88 40 279 276 218 207 252 206 215 86 94 122 143 149 83 89 52 76 65 27 20 17 194 193 232 237 230 222 231 230 235 224 207 230 243 240
172 203 42 296 126 350 171 155 92 335 203 229 359 211 247 295 132 143 135 61 40 41 127 104 125 94 84 58 54 67 89 89 135 149 164 185 194 201 200 168 123 142 148 149
172 192 176 207 193 186 192 184 156 209 205 296 9 236 262 88 66 114 99 354 338 310 116 113 92 98 89 73 61 70 86 92 103 115 129 150 156 147 158 188 185 167 203 242
186 220 170 181 200 152 198 225 18 9 46 12 211 252 308 199 163 128 123 42 25 34 115 119 112 114 110 107 92 89 91 87 92 103 114 118 127 141 137 138 156 168 228 280
282 110 136 113 269 315 225 162 129 291 201 242 253 228 218 132 133 120 101 79 52 49 102 137 152 164 140 129 118 129 123 121 117 114 118 115 115 121 125 126 108 73 9 340
282 97 157 131 208 189 185 210 208 180 196 216 331 279 340 118 137 127 138 123 37 103 131 155 147 148 175 201 193 181 160 145 125 120 121 118 113 114 116 111 92 66 36 11
195 146 168 187 42 241 219 218 198 159 213 224 54 271 108 121 106 95 101 119 54 344 5 138 179 190 209 217 212 202 197 189 170 158 153 144 133 127 121 102 64 40 21 5
174 209 129 177 300 216 211 216 225 232 95 215 152 258 255 121 140 136 131 153 180 205 242 212 197 212 226 227 226 219 209 207 204 192 190 177 165 160 157 139 63 13 12 8
168 158 211 197 156 149 196 203 212 220 223 221 227 229 132 199 225 212 218 25 47 13 334 314 256 230 231 234 224 225 221 215 212 209 205 202 192 187 191 202 255 346 8 3
183 206 224 258 299 210 181 193 204 211 226 208 238 231 243 250 261 316 324 316 304 283 271 273 283 264 236 226 222 223 228 221 219 216 214 216 212 204 206 212 278 345 4 7
195 230 186 263 243 211 172 197 203 216 233 242 248 255 259 296 294 286 279 281 268 260 252 251 256 271 247 223 221 218 221 226 220 216 217 219 216 207 210 212 214 349 6 349
185 164 150 248 194 226 232 219 223 227 232 230 242 252 257 250 248 249 254 256 253 255 250 245 250 260 270 247 224 216 220 219 216 213 215 215 215 209 206 208 188 195 299 317
204 188 165 237 79 221 236 191 211 227 239 244 263 264 255 260 262 264 265 255 266 271 267 264 264 275 280 276 233 221 217 216 216 211 211 210 209 202 212 196 190 205 276 326
217 205 226 202 200 268 317 225 207 200 242 239 243 254 256 264 266 269 249 250 237 244 252 257 278 293 291 286 244 210 200 208 207 207 209 208 204 200 209 192 193 208 274 336
276 229 198 181 220 219 238 235 186 138 273 245 237 265 261 257 266 270 262 264 293 353 359 335 313 307 307 290 219 199 194 197 197 200 201 204 203 199 198 186 191 199 314 348
181 181 224 208 218 277 253 132 134 163 233 258 237 241 256 249 229 257 15 6 336 299 312 312 317 329 313 226 198 195 191 188 189 188 198 192 189 194 198 185 191 144 54 31
175 172 209 203 255 258 246 153 194 229 272 299 113 134 272 262 295 337 314 315 311 291 286 295 212 176 258 217 194 163 150 159 171 185 182 179 179 181 182 153 114 100 89 90
189 189 177 180 206 243 107 209 254 93 241 156 161 184 223 270 264 227 254 264 258 230 229 229 197 168 166 195 190 163 163 172 174 171 167 168 164 159 151 134 110 101 96 89
274 218 191 106 252 265 42 107 138 162 217 239 229 178 186 245 271 271 267 266 216 216 212 203 183 185 165 155 165 175 173 170 161 155 154 152 149 134 121 130 118 114 91 58
191 154 178 253 283 342 301 233 200 224 233 243 233 196 213 221 256 257 275 270 235 215 206 196 188 184 178 165 161 171 168 163 150 145 142 137 130 117 102 83 71 69 53 43
183 170 174 225 176 190 242 219 194 218 231 232 236 263 230 219 246 238 262 252 223 202 192 182 174 170 171 168 155 155 161 165 153 142 142 136 130 115 100 90 73 56 49 29